Regional Weather Roundup
Issued by NWS

Home | Current Version | Previous Version | Text Only | Print | Product List | Glossary On
Versions: 1 2 3 4 5 6 7 8 9 10 11 12 13 14 15 16 17 18 19 20 21 22 23 24 25 26 27 28 29 30 31 32 33 34 35 36 37 38 39 40 41 42 43 44 45 46 47 48 49 50
000
ASUS43 KDMX 281407
RWRIA

WEATHER ROUNDUP FOR IOWA
NATIONAL WEATHER SERVICE DES MOINES IA
900 AM CDT SAT MAR 28 2015

NOTE: "FAIR" INDICATES FEW OR NO CLOUDS BELOW 12,000 FEET WITH NO
SIGNIFICANT WEATHER AND/OR OBSTRUCTIONS TO VISIBILITY.

* - THESE STATIONS ARE NOT NWS STATIONS...THUS NOT UNDER NWS
QUALITY CONTROL.  THEY ALSO DO NOT REPORT WEATHER SUCH
AS PRECIPITATION OR FOG.

IAZ001>003-012>014-020>022-031>034-043>046-281500-
   NORTHWEST IOWA

CITY           SKY/WX    TMP DP  RH WIND       PRES   REMARKS
CARROLL *      CLOUDY    32  27  80 SE10      30.19R WCI  24
CHEROKEE *     SUNNY     32  28  86 SE6       30.17S WCI  26
DENISON *      CLOUDY    34  28  80 SE8       30.15S WCI  27
LE MARS *      SUNNY     32  28  86 SE10      30.16R WCI  24
ORANGE CITY *  SUNNY     34  27  75 SE9       30.15R WCI  26
SHELDON *      SUNNY     32  28  86 SE13      30.15R WCI  22
SIOUX CITY     SUNNY     34  27  75 SE13      30.16R WCI  25
SPENCER        MOSUNNY   30  24  78 E7        30.18R WCI  23
STORM LAKE *   CLOUDY    32  27  80 SE10      30.17S WCI  24
$$

IAZ055>058-069>071-079>083-090>094-281500-
   SOUTHWEST IOWA

CITY           SKY/WX    TMP DP  RH WIND       PRES   REMARKS
ATLANTIC *     CLOUDY    36  23  60 SE10G16   30.18R WCI  28
AUDUBON *      SUNNY     34  23  64 SE8       30.18S WCI  27
CLARINDA *     CLOUDY    36  28  75 SE7       30.19S WCI  30
COUNCIL BLFS * SUNNY     34  28  80 SE9G16    30.15S WCI  26
CRESTON *      CLOUDY    34  23  64 SE14      30.19R WCI  24
HARLAN  *      PTSUNNY   30  30 100 CALM      30.20S
LAMONI         CLOUDY    34  24  67 SE9       30.20R WCI  27
RED OAK *      SUNNY     36  28  75 E13       30.18R WCI  27
SHENANDOAH *   MOSUNNY   37  27  65 SE16      30.17S WCI  28
$$

IAZ047>049-059>061-072>074-084-281500-
   CENTRAL IOWA

CITY           SKY/WX    TMP DP  RH WIND       PRES   REMARKS
AMES           CLOUDY    31  16  54 SE8       30.23R WCI  23
ANKENY *       CLOUDY    32  16  51 SE8       30.24R WCI  25
CHARITON *     CLOUDY    34  14  44 S12       30.22R WCI  25
DES MOINES     CLOUDY    34  15  46 SE8       30.23R WCI  27
GRINNELL*      SUNNY     30  19  64 SE8       30.25S WCI  23
KNOXVILLE *    CLOUDY    32  14  47 SE8       30.23R WCI  25
MARSHALLTOWN   SUNNY     29  16  58 SE10      30.24R WCI  20
PELLA *        MOSUNNY   32  21  64 SE8       30.26R WCI  25
PERRY *        CLOUDY    34  21  60 SE10      30.21R WCI  26
$$

IAZ004>006-015-016-023>025-035-036-281500-
   NORTH CENTRAL IOWA

CITY           SKY/WX    TMP DP  RH WIND       PRES   REMARKS
ALGONA *       CLOUDY    30  21  69 SE8       30.21S WCI  23
CLARION *      CLOUDY    30  19  64 SE10      30.22R WCI  21
ESTHERVILLE    CLOUDY    30  22  72 SE9       30.19R WCI  22
FORT DODGE *   CLOUDY    30  18  59 SE6       30.22S WCI  24
MASON CITY     SUNNY     28  18  66 SE10      30.24R WCI  19
FOREST CITY *  SUNNY     30  19  64 SE8       30.22S WCI  23
IOWA FALLS *   CLOUDY    30  19  64 SE7       30.24S WCI  23
$$

IAZ007>011-017>019-026>030-037>042-050>054-066-281500-
   NORTHEAST IOWA

CITY           SKY/WX    TMP DP  RH WIND       PRES   REMARKS
CEDAR RAPIDS   SUNNY     29  16  58 SE9       30.28R WCI  20
CHARLES CITY * MOSUNNY   28  18  64 S10       30.26S WCI  19
CLINTON *      SUNNY     27  18  69 S8        30.35R WCI  18
DECORAH *      SUNNY     23  12  63 SE7       30.27R WCI  15
DUBUQUE        SUNNY     25  18  74 S10       30.29R WCI  15
MONTICELLO *   SUNNY     27  21  80 SE9       30.30R WCI  17
OELWEIN *      SUNNY     28  18  64 SE12      30.28R WCI  18
WATERLOO       SUNNY     30  16  56 SE12      30.27R WCI  20
$$

IAZ064-065-067-068-078-281500-
   EAST CENTRAL IOWA

CITY           SKY/WX    TMP DP  RH WIND       PRES   REMARKS
DAVENPORT      SUNNY     26  16  65 S9        30.32R WCI  17
IOWA CITY      SUNNY     28  16  60 SE9       30.31R WCI  19
MT. PLEASANT * SUNNY     30  18  59 SE10      30.30R WCI  21
MUSCATINE *    SUNNY     28  18  64 SE9       30.33R WCI  20
QUAD CITIES    SUNNY     26  18  71 SE8       30.32R WCI  18
$$

IAZ062-063-075>077-085>089-095>099-281500-
   SOUTHEAST IOWA

CITY           SKY/WX    TMP DP  RH WIND       PRES   REMARKS
BURLINGTON     SUNNY     28  19  69 SE8       30.30R WCI  20
FAIRFIELD *    PTSUNNY   30  18  59 SE10      30.28R WCI  21
FORT MADISON * SUNNY     28  18  64 SE6       30.30R WCI  22
KEOKUK *       SUNNY     30  19  64 SE10      30.29R WCI  21
OSKALOOSA *      N/A     30  18  59 SE12      30.27R WCI  21
CENTERVILLE *  MOSUNNY   32  16  51 SE12      30.24S WCI  23
OTTUMWA        SUNNY     31  17  56 SE10      30.25R WCI  22
WASHINGTON *   SUNNY     30  19  64 SE12      30.29R WCI  21
$$

ABBREVIATIONS USED IN REMARKS
   TC - TEMPERATURES IN CELSIUS
  WCI - WIND CHILL INDEX
   HX - HEAT INDEX
  VSB - VISIBILITY
$$



USA.gov is the U.S. government's official web portal to all federal, state and local government web resources and services.